Location: Courçay
(47.2523°N, 0.8761°E)
Time: 23:13:21
(UTC+00:00)

Cosmos 676 Rocket - Pass Details

Date: 18 November 2025
Orbit: 750 x 779 km, 74.0° (Epoch: 05 December)

Event Time Altitude Azimuth Distance (km) Brightness Sun altitude
Rises 17:56:35 0° 183° (S) 3,248 7.4 -16.6°
Reaches altitude 10° 17:59:02 10° 178° (S) 2,323 6.6 -17.0°
Maximum altitude 18:04:05 48° 105° (ESE) 1,011 4.2 -17.8°
Enters shadow 18:06:41 27° 46° (NE) 1,477 5.0 -18.3°
